Simultaneous Nadir Overpasses (SNOs) Predictions

Prediction of SNOs between GOES-16 and AQUA Satellite Orbit:

Table of predicted SNOs for the next 14.0 days since TLE Epoch: 11/2/2018
Index Date Time (GOES-16) GOES-16 Lat,Lon AQUA Lat,Lon Distance(km) Time Diff (sec)
1 11/04/2018 18:29:15 0.00, -75.20 0.43, -73.16 231.15 80
2 11/05/2018 06:50:30 -0.00, -75.20 0.68, -78.32 355.26 80
3 11/07/2018 06:38:18 -0.00, -75.20 0.04, -75.36 18.16 80
4 11/09/2018 06:23:26 -0.00, -75.21 -0.60, -72.40 319.48 80
5 11/09/2018 18:44:49 0.00, -75.22 -0.49, -77.59 270.14 80
6 11/11/2018 18:35:17 -0.00, -75.23 0.10, -74.63 68.29 80
7 11/13/2018 18:23:05 -0.00, -75.25 0.75, -71.67 407.10 80
8 11/14/2018 06:44:20 0.00, -75.26 0.32, -76.83 178.77 80
9 11/16/2018 06:29:28 -0.00, -75.29 -0.33, -73.88 160.70 80
10 11/16/2018 18:50:51 0.01, -75.29 -0.80, -79.06 428.50 80




NCC Satellite Simultaneous Nadir Overpasses (SNOs) Prediction Service
